Tracking 29892 objects as of 21-Nov-2024
HD Live streaming from Space Station
objects crossing your sky now

STARLINK-1715

Track STARLINK-1715 now!
10-day predictions
STARLINK-1715 is classified as:


NORAD ID: 46671
Int'l Code: 2020-073B
Perigee: 522.7 km
Apogee: 524.4 km
Inclination: 53.1 °
Period: 95.0 minutes
Semi major axis: 6894 km
RCS: Unknown
Launch date: October 18, 2020
Source: United States (US)
Launch site: AIR FORCE EASTERN TEST RANGE (AFETR)
Your satellite tracking list
Your tracking list is empty




NASA's NSSDC Master Catalog

Two Line Element Set (TLE):
1 46671U 20073B   24325.91668981  .00518501  00000-0  24742-1 0  9990
2 46671  53.0537 213.2646 0001194  86.9652 285.2257 15.16505865  5585
Source of the keplerian elements: AFSPC